Weather History for Defiance, OH

Change the Weather History Date:

Friday, March 2, 2012

  Actual Average Record
Temperature  
Mean Temperature 45 °F -  
Max Temperature 57 °F 43 °F 64 °F (1992)
Min Temperature 33 °F 22 °F -6 °F (1978)
Degree Days  
Heating Degree Days 20    
Moisture  
Dew Point 40 °F    
Average Humidity 85    
Maximum Humidity 93    
Minimum Humidity 73    
Precipitation  
Precipitation 0.62 in - - ()
Sea Level Pressure  
Sea Level Pressure 29.45 in    
Wind  
Wind Speed 8 mph (ESE)    
Max Wind Speed 29 mph    
Max Gust Speed 48 mph    
Visibility 7 miles    
Events Rain , Thunderstorm    
Averages and records for this station are not official NWS values.
T = Trace of Precipitation, MM = Missing Value Source: NWS Daily Summary

Daily Weather History Graph

Daily Weather History Graph

Search for Another Location

Airport:

Trip Planner

Search our weather history database for the weather conditions in past years. The results will help you decide how hot, cold, wet, or windy it might be!

Date:

Astronomy

Mar. 02, 2012 Rise Set
Actual Time 7:09 AM EST 6:30 PM EST
Civil Twilight 6:42 AM EST 6:57 PM EST
Nautical Twilight 6:10 AM EST 7:29 PM EST
Astronomical Twilight 5:38 AM EST 8:02 PM EST
Moon 12:38 PM EST (3/2) 3:02 AM EST (3/2)
Length of Visible Light 12h 15m
Length of Day
11h 20m
Waxing Gibbous, 66% of the Moon is Illuminated
Mar 2
Waxing Gibbous
Mar 8
Full
Mar 14
Last Quarter
Mar 22
New
Mar 30
First Quarter

Hourly Weather History & Observations

Time (EST) Temp. Windchill Dew Point Humidity Pressure Visibility Wind Dir Wind Speed Gust Speed Precip Events Conditions
12:53 AM 33.1 °F - 28.9 °F 85% 29.89 in 9.0 mi Calm Calm - N/A   Clear
1:53 AM 34.0 °F 31.0 °F 30.0 °F 85% 29.89 in 10.0 mi ESE 3.5 mph - N/A   Clear
2:53 AM 33.1 °F 30.0 °F 28.9 °F 85% 29.85 in 8.0 mi East 3.5 mph - N/A   Clear
3:53 AM 35.1 °F 31.0 °F 30.0 °F 82% 29.81 in 10.0 mi ESE 4.6 mph - N/A   Clear
4:53 AM 34.0 °F 29.8 °F 28.9 °F 82% 29.78 in 9.0 mi East 4.6 mph - N/A   Clear
5:53 AM 34.0 °F 28.8 °F 30.0 °F 85% 29.76 in 9.0 mi East 5.8 mph - N/A   Clear
6:53 AM 33.1 °F 27.7 °F 28.9 °F 85% 29.74 in 8.0 mi ENE 5.8 mph - N/A   Clear
7:53 AM 34.0 °F 27.2 °F 30.0 °F 85% 29.70 in 7.0 mi East 8.1 mph - N/A   Clear
8:53 AM 36.0 °F 29.6 °F 30.9 °F 82% 29.68 in 8.0 mi East 8.1 mph - N/A   Scattered Clouds
9:53 AM 39.0 °F 34.8 °F 32.0 °F 76% 29.66 in 10.0 mi East 5.8 mph - N/A   Overcast
10:53 AM 41.0 °F 34.7 °F 34.0 °F 76% 29.60 in 10.0 mi East 10.4 mph - N/A   Mostly Cloudy
11:53 AM 45.0 °F 39.3 °F 37.0 °F 74% 29.54 in 10.0 mi East 11.5 mph - N/A   Overcast
12:53 PM 48.0 °F - 39.9 °F 74% 29.51 in 10.0 mi SE 8.1 mph 18.4 mph N/A   Overcast
1:09 PM 46.4 °F 40.4 °F 41.0 °F 81% 29.49 in 2.0 mi SE 13.8 mph 20.7 mph 0.06 in Rain Rain
1:17 PM 46.4 °F 40.4 °F 42.8 °F 87% 29.47 in 2.5 mi SE 13.8 mph - 0.10 in Rain Rain
1:39 PM 46.4 °F 42.4 °F 42.8 °F 87% 29.46 in 4.0 mi SE 8.1 mph - 0.18 in Rain Light Rain
1:53 PM 46.9 °F - 43.0 °F 86% 29.44 in 4.0 mi ESE 9.2 mph - 0.20 in Rain Light Rain
2:27 PM 46.4 °F 41.9 °F 44.6 °F 93% 29.40 in 2.5 mi ESE 9.2 mph - 0.08 in Rain , Thunderstorm Heavy Rain
2:49 PM 46.4 °F 41.1 °F 42.8 °F 87% 29.37 in 4.0 mi ESE 11.5 mph 20.7 mph 0.12 in Rain , Thunderstorm Light Thunderstorms and Rain
2:53 PM 46.9 °F - 44.1 °F 90% 29.41 in 5.0 mi Variable 3.5 mph 19.6 mph 0.13 in Rain , Thunderstorm Thunderstorms and Rain
3:05 PM 46.4 °F 42.4 °F 44.6 °F 93% 29.39 in 8.0 mi North 8.1 mph - 0.01 in Rain , Thunderstorm Light Rain
3:23 PM 46.4 °F 40.4 °F 42.8 °F 87% 29.33 in 2.5 mi East 13.8 mph 19.6 mph 0.06 in Rain , Thunderstorm Thunderstorms and Rain
3:26 PM 46.4 °F 40.7 °F 42.8 °F 87% 29.32 in 2.5 mi East 12.7 mph - 0.08 in Rain , Thunderstorm Rain
3:32 PM 46.4 °F 40.4 °F 42.8 °F 87% 29.34 in 4.0 mi East 13.8 mph - 0.08 in Rain , Thunderstorm Light Rain
3:45 PM 46.4 °F 41.5 °F 44.6 °F 93% 29.35 in 2.0 mi East 10.4 mph - 0.14 in Rain , Thunderstorm Heavy Thunderstorms and Rain
3:53 PM 46.9 °F - 44.1 °F 90% 29.37 in 2.0 mi East 3.5 mph - 0.17 in Rain , Thunderstorm Thunderstorms and Rain
4:00 PM 46.4 °F 42.9 °F 44.6 °F 93% 29.35 in 2.5 mi East 6.9 mph - 0.05 in Rain , Thunderstorm Heavy Rain
4:04 PM 46.4 °F 42.9 °F 44.6 °F 93% 29.33 in 2.0 mi ESE 6.9 mph - 0.07 in Rain Heavy Rain
4:13 PM 46.4 °F 41.1 °F 44.6 °F 93% 29.29 in 2.5 mi ESE 11.5 mph - 0.10 in Rain Heavy Rain
4:16 PM 46.4 °F 39.5 °F 44.6 °F 93% 29.25 in 2.0 mi ESE 17.3 mph 21.9 mph 0.11 in Rain Rain
4:19 PM 46.4 °F 40.1 °F 44.6 °F 93% 29.25 in 2.5 mi ESE 15.0 mph 24.2 mph 0.11 in Rain Light Rain
4:21 PM 46.4 °F 39.5 °F 44.6 °F 93% 29.24 in 3.0 mi ESE 17.3 mph 24.2 mph 0.11 in Rain Light Rain
4:36 PM 48.2 °F - 46.4 °F 93% 29.24 in 10.0 mi ESE 15.0 mph 21.9 mph 0.11 in   Scattered Clouds
4:53 PM 50.0 °F - 46.0 °F 86% 29.27 in 10.0 mi SE 8.1 mph - 0.11 in   Partly Cloudy
5:21 PM 50.0 °F - 46.4 °F 87% 29.24 in 10.0 mi SE 9.2 mph - N/A   Mostly Cloudy
5:53 PM 51.1 °F - 48.0 °F 89% 29.22 in 10.0 mi SSE 4.6 mph - N/A   Overcast
6:27 PM 51.8 °F - 48.2 °F 88% 29.20 in 9.0 mi South 10.4 mph - N/A   Scattered Clouds
6:53 PM 55.0 °F - 51.1 °F 86% 29.22 in 10.0 mi SSW 16.1 mph 23.0 mph N/A   Partly Cloudy
7:53 PM 57.0 °F - 48.9 °F 74% 29.21 in 10.0 mi SW 20.7 mph 38.0 mph 0.01 in   Clear
8:26 PM 50.0 °F - 42.8 °F 76% 29.27 in 10.0 mi WSW 28.8 mph 48.3 mph N/A   Overcast
8:53 PM 46.0 °F 38.3 °F 37.9 °F 73% 29.31 in 10.0 mi WSW 20.7 mph 41.4 mph N/A   Overcast
9:53 PM 41.0 °F 33.1 °F 34.0 °F 76% 29.37 in 10.0 mi WSW 15.0 mph 29.9 mph N/A   Overcast
10:53 PM 39.0 °F 30.3 °F 32.0 °F 76% 29.44 in 10.0 mi WSW 16.1 mph 29.9 mph 0.00 in   Overcast
11:53 PM 37.9 °F 30.5 °F 30.0 °F 73% 29.45 in 10.0 mi West 11.5 mph 36.8 mph N/A   Overcast